• In Hungary
  • List of Countries
  • For 7 days
  • Water Temperature
  • Satellite Maps
  • Weather Map
  • News
  • Weather Widgets
  • user-avatar
    Login

    Hourly Weather Tel Aviv

    Today, 20 September, Wednesday

    Time Temperature Precipitation Wind Pressure Humidity
    00:00 +28°C° 0 mm 1 mps 758 mmHg 73%
    01:00 +27°C° 0 mm 1 mps 758 mmHg 75%
    02:00 +27°C° 0 mm 1 mps 758 mmHg 77%
    03:00 +26°C° 0 mm 1 mps 758 mmHg 78%
    04:00 +26°C° 0 mm 1 mps 758 mmHg 80%
    05:00 +26°C° 0 mm 1 mps 759 mmHg 81%
    06:00 +27°C° 0 mm 1 mps 759 mmHg 75%
    07:00 +27°C° 0 mm 1 mps 759 mmHg 69%
    08:00 +29°C° 0 mm 2 mps 759 mmHg 60%
    09:00 +30°C° 0 mm 2 mps 759 mmHg 55%
    10:00 +31°C° 0 mm 3 mps 759 mmHg 51%
    11:00 +33°C° 0 mm 3 mps 759 mmHg 46%
    12:00 +33°C° 0 mm 3 mps 759 mmHg 45%
    13:00 +33°C° 0 mm 4 mps 759 mmHg 44%
    14:00 +34°C° 0 mm 4 mps 759 mmHg 43%
    15:00 +33°C° 0 mm 4 mps 759 mmHg 46%
    16:00 +32°C° 0 mm 4 mps 759 mmHg 49%
    17:00 +30°C° 0 mm 3 mps 759 mmHg 52%
    18:00 +30°C° 0 mm 3 mps 759 mmHg 56%
    19:00 +29°C° 0 mm 2 mps 759 mmHg 59%
    20:00 +28°C° 0 mm 1 mps 759 mmHg 62%
    21:00 +28°C° 0 mm 1 mps 759 mmHg 63%
    22:00 +28°C° 0 mm 1 mps 759 mmHg 64%
    23:00 +25°C° 0 mm 0 mps 759 mmHg 66%

    Tomorrow, 21 September, Thursday

    Time Temperature Precipitation Wind Pressure Humidity
    00:00 +27°C° 0 mm 1 mps 759 mmHg 66%
    01:00 +27°C° 0 mm 1 mps 759 mmHg 67%
    02:00 +26°C° 0 mm 1 mps 759 mmHg 67%
    03:00 +26°C° 0 mm 1 mps 759 mmHg 67%
    04:00 +26°C° 0 mm 1 mps 759 mmHg 66%
    05:00 +26°C° 0 mm 2 mps 759 mmHg 65%
    06:00 +27°C° 0 mm 2 mps 759 mmHg 60%
    07:00 +28°C° 0 mm 2 mps 759 mmHg 54%
    08:00 +30°C° 0 mm 3 mps 759 mmHg 48%
    09:00 +31°C° 0 mm 3 mps 759 mmHg 45%
    10:00 +33°C° 0 mm 3 mps 759 mmHg 42%
    11:00 +34°C° 0 mm 4 mps 759 mmHg 38%
    12:00 +35°C° 0 mm 4 mps 759 mmHg 39%
    13:00 +35°C° 0 mm 4 mps 759 mmHg 40%
    14:00 +35°C° 0 mm 5 mps 758 mmHg 41%
    15:00 +34°C° 0 mm 4 mps 758 mmHg 46%
    16:00 +33°C° 0 mm 4 mps 758 mmHg 51%
    17:00 +32°C° 0 mm 4 mps 758 mmHg 56%
    18:00 +31°C° 0 mm 3 mps 758 mmHg 60%
    19:00 +30°C° 0 mm 2 mps 759 mmHg 64%
    20:00 +29°C° 0 mm 2 mps 759 mmHg 68%
    21:00 +29°C° 0 mm 2 mps 759 mmHg 70%
    22:00 +29°C° 0 mm 2 mps 759 mmHg 72%
    23:00 +28°C° 0 mm 2 mps 759 mmHg 73%

    Day after tomorrow, 22 September, Friday

    Time Temperature Precipitation Wind Pressure Humidity
    00:00 +28°C° 0 mm 2 mps 759 mmHg 75%
    01:00 +28°C° 0 mm 2 mps 759 mmHg 77%
    02:00 +27°C° 0 mm 2 mps 759 mmHg 79%
    03:00 +27°C° 0 mm 2 mps 759 mmHg 80%
    04:00 +27°C° 0 mm 2 mps 759 mmHg 81%
    05:00 +27°C° 0 mm 2 mps 760 mmHg 82%
    06:00 +28°C° 0 mm 2 mps 760 mmHg 77%
    07:00 +29°C° 0 mm 2 mps 760 mmHg 72%
    08:00 +29°C° 0 mm 2 mps 761 mmHg 68%
    09:00 +31°C° 0 mm 3 mps 761 mmHg 61%
    10:00 +33°C° 0 mm 3 mps 760 mmHg 55%
    11:00 +34°C° 0 mm 4 mps 760 mmHg 49%
    12:00 +34°C° 0 mm 4 mps 760 mmHg 49%
    13:00 +34°C° 0 mm 5 mps 760 mmHg 50%
    14:00 +34°C° 0 mm 6 mps 760 mmHg 50%
    15:00 +33°C° 0 mm 6 mps 760 mmHg 54%
    16:00 +32°C° 0 mm 5 mps 760 mmHg 59%
    17:00 +30°C° 0 mm 5 mps 760 mmHg 63%
    18:00 +29°C° 0 mm 5 mps 760 mmHg 65%
    19:00 +29°C° 0 mm 4 mps 761 mmHg 66%
    20:00 +28°C° 0 mm 3 mps 761 mmHg 68%
    21:00 +28°C° 0 mm 3 mps 761 mmHg 68%
    22:00 +27°C° 0 mm 3 mps 761 mmHg 68%
    23:00 +27°C° 0 mm 2 mps 761 mmHg 68%

    23 September, Saturday

    Time Temperature Precipitation Wind Pressure Humidity
    00:00 +27°C° 0 mm 3 mps 761 mmHg 69%
    01:00 +26°C° 0 mm 3 mps 761 mmHg 69%
    02:00 +26°C° 0 mm 3 mps 761 mmHg 70%
    03:00 +26°C° 0 mm 3 mps 761 mmHg 70%
    04:00 +26°C° 0 mm 2 mps 761 mmHg 71%
    05:00 +25°C° 0 mm 2 mps 761 mmHg 71%
    06:00 +26°C° 0 mm 2 mps 761 mmHg 66%
    07:00 +27°C° 0 mm 2 mps 762 mmHg 61%
    08:00 +28°C° 0 mm 2 mps 762 mmHg 56%
    09:00 +29°C° 0 mm 3 mps 762 mmHg 52%
    10:00 +30°C° 0 mm 3 mps 761 mmHg 48%
    11:00 +31°C° 0 mm 3 mps 761 mmHg 43%
    12:00 +32°C° 0 mm 4 mps 761 mmHg 43%
    13:00 +32°C° 0 mm 4 mps 760 mmHg 43%
    14:00 +33°C° 0 mm 5 mps 760 mmHg 43%
    15:00 +32°C° 0 mm 5 mps 760 mmHg 46%
    16:00 +30°C° 0 mm 4 mps 760 mmHg 50%
    17:00 +29°C° 0 mm 4 mps 760 mmHg 53%
    18:00 +29°C° 0 mm 4 mps 760 mmHg 54%
    19:00 +28°C° 0 mm 3 mps 760 mmHg 56%
    20:00 +27°C° 0 mm 3 mps 761 mmHg 58%
    21:00 +27°C° 0 mm 3 mps 760 mmHg 58%
    22:00 +27°C° 0 mm 3 mps 760 mmHg 58%
    23:00 +27°C° 0 mm 3 mps 760 mmHg 59%

    24 September, Sunday

    Time Temperature Precipitation Wind Pressure Humidity
    00:00 +26°C° 0 mm 3 mps 760 mmHg 60%
    01:00 +26°C° 0 mm 2 mps 760 mmHg 61%
    02:00 +26°C° 0 mm 2 mps 759 mmHg 62%
    03:00 +26°C° 0 mm 2 mps 760 mmHg 63%
    04:00 +25°C° 0 mm 2 mps 760 mmHg 64%
    05:00 +25°C° 0 mm 2 mps 760 mmHg 65%
    06:00 +26°C° 0 mm 2 mps 760 mmHg 62%
    07:00 +27°C° 0 mm 2 mps 760 mmHg 58%
    08:00 +28°C° 0 mm 3 mps 760 mmHg 54%
    09:00 +29°C° 0 mm 3 mps 759 mmHg 50%
    10:00 +30°C° 0 mm 3 mps 759 mmHg 46%
    11:00 +33°C° 0 mm 4 mps 759 mmHg 43%
    12:00 +33°C° 0 mm 4 mps 759 mmHg 43%
    13:00 +33°C° 0 mm 5 mps 758 mmHg 44%
    14:00 +33°C° 0 mm 5 mps 758 mmHg 45%
    15:00 +32°C° 0 mm 5 mps 758 mmHg 47%
    16:00 +30°C° 0 mm 4 mps 758 mmHg 50%
    17:00 +29°C° 0 mm 4 mps 758 mmHg 53%
    18:00 +29°C° 0 mm 4 mps 759 mmHg 55%
    19:00 +28°C° 0 mm 3 mps 759 mmHg 56%
    20:00 +28°C° 0 mm 3 mps 759 mmHg 58%
    21:00 +28°C° 0 mm 3 mps 759 mmHg 59%
    22:00 +27°C° 0 mm 2 mps 759 mmHg 60%
    23:00 +27°C° 0 mm 2 mps 759 mmHg 61%

    25 September, Monday

    Time Temperature Precipitation Wind Pressure Humidity
    00:00 +27°C° 0 mm 2 mps 759 mmHg 63%
    01:00 +26°C° 0 mm 2 mps 759 mmHg 64%
    02:00 +26°C° 0 mm 1 mps 759 mmHg 65%
    03:00 +26°C° 0 mm 1 mps 759 mmHg 67%
    04:00 +26°C° 0 mm 1 mps 759 mmHg 68%
    05:00 +25°C° 0 mm 1 mps 759 mmHg 69%
    06:00 +26°C° 0 mm 1 mps 759 mmHg 65%
    07:00 +27°C° 0 mm 1 mps 760 mmHg 61%
    08:00 +28°C° 0 mm 1 mps 760 mmHg 57%
    09:00 +29°C° 0 mm 2 mps 760 mmHg 53%
    10:00 +30°C° 0 mm 2 mps 760 mmHg 49%
    11:00 +31°C° 0 mm 3 mps 759 mmHg 45%
    12:00 +31°C° 0 mm 3 mps 759 mmHg 45%
    13:00 +33°C° 0 mm 4 mps 759 mmHg 45%
    14:00 +33°C° 0 mm 4 mps 758 mmHg 45%
    15:00 +32°C° 0 mm 4 mps 758 mmHg 49%
    16:00 +30°C° 0 mm 4 mps 759 mmHg 52%
    17:00 +30°C° 0 mm 4 mps 759 mmHg 55%
    18:00 +29°C° 0 mm 4 mps 759 mmHg 58%
    19:00 +28°C° 0 mm 3 mps 759 mmHg 61%
    20:00 +28°C° 0 mm 3 mps 760 mmHg 63%
    21:00 +27°C° 0 mm 3 mps 760 mmHg 65%
    22:00 +27°C° 0 mm 2 mps 760 mmHg 66%
    23:00 +27°C° 0 mm 2 mps 760 mmHg 67%
    Show more